Regional Weather Roundup
Issued by NWS Cleveland, OH

Home | Current Version | Previous Version | Text Only | Print | Product List | Glossary Off
Versions: 1 2 3 4 5 6 7 8 9 10 11 12 13 14 15 16 17 18 19 20 21 22 23 24 25 26 27 28 29 30 31 32 33 34 35 36 37 38 39 40 41 42 43 44 45 46 47 48 49 50

000
ASUS41 KCLE 261412
RWRCLE
OHIO REGIONAL WEATHER ROUNDUP
NATIONAL WEATHER SERVICE WILMINGTON, OH
1000 AM EDT WED APR 26 2017

NOTE: "FAIR" INDICATES FEW OR NO CLOUDS BELOW 12,000 FEET WITH NO
SIGNIFICANT WEATHER AND/OR OBSTRUCTIONS TO VISIBILITY.

OHZ001>008-015>018-024>027-034-035-043-044-261500-
   NORTHWEST OHIO

CITY           SKY/WX    TMP DP  RH WIND       PRES   REMARKS
DEFIANCE       FAIR      68  56  65 S15G21    29.65S
FINDLAY        FAIR      69  56  62 S13G18    29.68F
TOLEDO EXPRESS FAIR      66  57  72 S7        29.67R
TOLEDO EXEC    FAIR      67  58  72 SE17      29.68F
LIMA           FAIR      69  58  67 S15       29.69R
$$

OHZ009>014-019>023-028>033-038-089-261500-
   NORTHEAST OHIO

CITY           SKY/WX    TMP DP  RH WIND       PRES   REMARKS
CLE-HOPKINS    FAIR      67  54  63 SE12      29.76F
CLE-LAKEFRONT  FAIR      65  53  65 SE15      29.73F
CUY CO. ARPT   MOSUNNY   66  55  68 S12       29.76F
LORAIN-ELYRIA  FAIR      62  53  72 S14       29.74F
ASHTABULA      FAIR      62  54  74 S9        29.79F
AKRON-CANTON   FAIR      62  53  72 SE8       29.78F
WOOSTER        FAIR      61  55  81 S8        29.77F
MANSFIELD      FAIR      66  56  70 S10       29.75F
YOUNGSTOWN     FAIR      61  52  72 S8        29.79F
$$

OHZ042-051>053-060>062-070>072-077>081-261500-
  SOUTHWEST OHIO

CITY           SKY/WX    TMP DP  RH WIND       PRES   REMARKS
CINC-COVINGTON PTSUNNY   68  57  68 SW10      29.72R
CINC-LUNKEN    FAIR      67  60  78 S8        29.73R
HAMILTON       FAIR      71  59  65 VRB5      29.73R
DAYTON         PTSUNNY   69  57  65 S14       29.72R
WRIGHT-PAT AFB FAIR      69  60  72 S10       29.72R
DAYTON GENERAL FAIR      68  58  70 S13       29.71R
WILMINGTON     FAIR      67  60  78 S10       29.73R
$$

OHZ036-037-039>041-045>050-054>059-063>069-073>076-082>088-261500-
  CENTRAL AND SOUTHEAST OHIO

CITY           SKY/WX    TMP DP  RH WIND       PRES   REMARKS
COLUMBUS       FAIR      67  57  70 SE8       29.74F
OSU AIRPORT    FAIR      65  57  75 S9        29.73F
BOLTON FIELD   SUNNY     64  57  77 SE8       29.74F
RICKENBACK AFB FAIR      66  58  76 S8        29.73F
NEWARK         FAIR      66  55  67 S6        29.75F
MARION         FAIR      67  56  67 S13       29.74S
LANCASTER      FAIR      68  58  70 SE7       29.76F
ZANESVILLE     FAIR      64  55  72 SE3       29.77F
NEW PHILLY     FAIR      61  55  81 SE7       29.79F
$$




USA.gov is the U.S. government's official web portal to all federal, state and local government web resources and services.